Regional Weather Roundup
Issued by NWS Little Rock, AR

Home | Current Version | Previous Version | Text Only | Print | Product List | Glossary Off
Versions: 1 2 3 4 5 6 7 8 9 10 11 12 13 14 15 16 17 18 19 20 21 22 23 24 25 26 27 28 29 30 31 32 33 34

000
ASUS44 KLZK 031212
RWRLZK

WEATHER ROUNDUP FOR ARKANSAS
NATIONAL WEATHER SERVICE LITTLE ROCK AR
600 AM CST SAT DEC 03 2016

NOTE: "FAIR" INDICATES FEW OR NO CLOUDS BELOW 12,000 FEET WITH NO
SIGNIFICANT WEATHER AND/OR OBSTRUCTIONS TO VISIBILITY.

ARZ001-003-010-029-031300-
NORTHWEST ARKANSAS

CITY           SKY/WX    TMP DP  RH WIND       PRES   REMARKS
FAYETTEVILLE   CLOUDY    44  35  70 E5        30.21F
6HR MIN TEMP:  42; 6HR MAX TEMP:  46;

FORT SMITH     CLOUDY    48  39  71 E6        30.22F
6HR MIN TEMP:  48; 6HR MAX TEMP:  51; 6HR PCP:  0.01;

HARRISON       CLOUDY    42  35  76 E3        30.27S
6HR MIN TEMP:  42; 6HR MAX TEMP:  45;

BENTONVILLE    PTCLDY    46  30  53 E7        30.22F
6HR MIN TEMP:  46; 6HR MAX TEMP:  48;

ROGERS         MOCLDY    46  34  62 E8        30.22F
6HR MIN TEMP:  46; 6HR MAX TEMP:  49;

SILOAM SPGS    PTCLDY    46  30  53 CALM      30.21F
6HR MIN TEMP:  46; 6HR MAX TEMP:  48;

HIGHFILL       MOCLDY    46  33  60 E5        30.21F
6HR MIN TEMP:  46; 6HR MAX TEMP:  49;

SPRINGDALE     CLOUDY    46  32  57 E6        30.23
$$

ARZ004-005-016-031300-
NORTH CENTRAL ARKANSAS

CITY           SKY/WX    TMP DP  RH WIND       PRES   REMARKS
BATESVILLE     CLOUDY    45  34  65 NE3       30.30F
6HR MIN TEMP:  43; 6HR MAX TEMP:  45;

FLIPPIN        CLOUDY    43  30  61 E3        30.26S
6HR MIN TEMP:  43; 6HR MAX TEMP:  46;

MTN HOME       CLOUDY    42  32  67 E7        30.28F
6HR MIN TEMP:  42; 6HR MAX TEMP:  44;

$$

ARZ040-041-031300-
WEST CENTRAL ARKANSAS

CITY           SKY/WX    TMP DP  RH WIND       PRES   REMARKS
MENA           CLOUDY    46  45  93 CALM      30.21F
MOUNT IDA      LGT RAIN  47  41  80 CALM      30.21S
6HR MIN TEMP:  46; 6HR MAX TEMP:  47; 6HR PCP: TRACE;

$$

ARZ009-017-025-026-028-031300-
NORTHEAST ARKANSAS

CITY           SKY/WX    TMP DP  RH WIND       PRES   REMARKS
CORNING        FAIR      41  36  81 NE10      30.34F
JONESBORO      CLOUDY    43  36  76 NE13      30.31F
6HR MIN TEMP:  43; 6HR MAX TEMP:  46;

NEWPORT        CLOUDY    44  38  79 NE13      30.29F
6HR MIN TEMP:  43; 6HR MAX TEMP:  45;

WALNUT RIDGE   CLOUDY    43  34  70 NE8       30.32F
6HR MIN TEMP:  41; 6HR MAX TEMP:  43;

BLYTHEVILLE    CLOUDY    44  34  67 E5        30.34F
6HR MIN TEMP:  43; 6HR MAX TEMP:  45;

$$

ARZ022-023-033-042-044-031300-
CENTRAL ARKANSAS

CITY           SKY/WX    TMP DP  RH WIND       PRES   REMARKS
LITTLE ROCK    CLOUDY    46  40  79 NE9       30.27R
6HR MIN TEMP:  46; 6HR MAX TEMP:  48;

N LITTLE ROCK    N/A     46  39  74 E8        30.27S
6HR MIN TEMP:  46; 6HR MAX TEMP:  49;

JACKSONVILLE   CLOUDY    48  37  66 NE9       30.26R
6HR MIN TEMP:  47; 6HR MAX TEMP:  49;

SEARCY         LGT RAIN  47  36  65 NE8       30.30S
6HR MIN TEMP:  47; 6HR MAX TEMP:  49; 6HR PCP: TRACE;

HOT SPRINGS    LGT RAIN  49  40  71 E7        30.25S
6HR MIN TEMP:  49; 6HR MAX TEMP:  53; 6HR PCP: TRACE;

RUSSELLVILLE   CLOUDY    49  36  61 E8        30.25R
6HR MIN TEMP:  49; 6HR MAX TEMP:  52;

$$

ARZ036-031300-
EAST ARKANSAS

CITY           SKY/WX    TMP DP  RH WIND       PRES   REMARKS
WEST MEMPHIS   CLOUDY    46  33  60 E7        30.29F
6HR MIN TEMP:  46; 6HR MAX TEMP:  48;

$$

ARZ050-053-066-070-073-031300-
SOUTHWEST ARKANSAS

CITY           SKY/WX    TMP DP  RH WIND       PRES   REMARKS
ARKADELPHIA    LGT RAIN  48  41  76 N5        30.26R
6HR MIN TEMP:  48; 6HR MAX TEMP:  50; 6HR PCP: TRACE;

CAMDEN         MOCLDY    46  41  81 NE3       30.24R
TEXARKANA      LGT RAIN  46  44  93 NE6       30.21R
6HR MIN TEMP:  46; 6HR MAX TEMP:  52; 6HR PCP:  0.07;

EL DORADO      CLOUDY    47  44  90 N6        30.21R
6HR MIN TEMP:  47; 6HR MAX TEMP:  53; 6HR PCP:  0.05;

DE QUEEN       LGT RAIN  47  44  90 E5        30.20S
6HR MIN TEMP:  47; 6HR MAX TEMP:  54; 6HR PCP: TRACE;

$$

ARZ056-057-069-031300-
SOUTHEAST ARKANSAS

CITY           SKY/WX    TMP DP  RH WIND       PRES   REMARKS
PINE BLUFF     CLOUDY    48  40  73 E6        30.25R
6HR MIN TEMP:  47; 6HR MAX TEMP:  50; 6HR PCP: TRACE;

STUTTGART      CLOUDY    48  36  61 NE9       30.26S
6HR MIN TEMP:  48; 6HR MAX TEMP:  50;

MONTICELLO     LGT RAIN  46  43  89 NE6       30.24S
6HR MIN TEMP:  46; 6HR MAX TEMP:  51; 6HR PCP:  0.04;


$$






USA.gov is the U.S. government's official web portal to all federal, state and local government web resources and services.